Probability
0 0 0 0 0 0 0 0 0 0 0 0 1 2 3 6 11 15 14 10 5 3 3 2 1 0 0 0 0 0 0 0 0 0 0 0 0 0 0 0 0 0 0
0 0 0 0 0 0 0 0 0 0 0 0 0 1 2 4 7 12 15 14 9 7 6 4 1 0 0 0 0 0 0 0 0 0 0 0 0 0 0 0 0 0 0
0 0 0 0 0 0 0 0 0 0 0 0 0 0 1 2 3 9 14 15 13 10 7 4 2 1 0 0 0 0 0 0 0 0 0 0 0 0 0 0 0 0 0
0 0 0 0 0 0 0 0 0 0 0 0 1 0 0 1 2 5 9 11 11 9 6 4 4 2 1 0 0 0 0 0 0 0 0 0 0 0 0 0 0 0 0
0 0 0 0 0 0 0 0 0 0 0 0 0 0 0 0 1 2 3 6 7 6 4 3 4 3 1 0 0 0 0 0 0 0 0 0 0 0 0 0 0 0 0
0 0 0 0 0 0 0 0 0 0 0 0 0 0 0 0 0 0 1 2 4 4 2 1 1 1 1 0 0 0 0 0 0 0 0 0 0 0 0 0 0 0 0
0 0 0 0 0 0 0 0 0 0 0 0 0 0 0 0 0 0 1 2 4 3 1 0 0 0 0 0 0 0 0 0 0 0 0 0 0 0 0 0 0 0 0
0 0 0 0 0 0 0 0 0 0 0 0 0 0 0 0 0 0 1 2 4 2 1 0 0 0 0 0 0 0 0 0 0 0 0 0 0 0 0 0 0 0 0
0 0 0 0 0 0 0 0 0 0 0 0 0 0 0 0 0 0 0 1 2 1 0 0 0 0 0 0 0 0 0 0 0 0 0 0 0 0 0 0 0 0 0
0 0 0 0 0 0 0 0 0 0 0 0 0 0 0 0 0 0 0 0 0 0 0 0 0 0 0 0 0 0 0 0 0 0 0 0 0 0 0 0 0 0 0
0 0 0 0 0 0 0 0 0 0 0 0 0 0 0 0 0 0 0 0 0 0 0 0 0 0 0 0 0 0 0 0 0 0 0 0 0 0 0 0 0 0 0
0 0 0 0 0 0 0 0 0 0 0 0 0 0 0 0 0 0 0 0 0 0 0 0 0 0 0 0 0 0 0 0 0 0 0 0 0 0 0 0 0 0 0
0 0 0 0 0 0 0 0 0 0 0 0 0 0 0 0 0 0 0 0 0 0 0 0 0 0 0 0 0 0 0 0 0 0 0 0 0 0 0 0 0 0 0
0 0 0 0 0 0 0 0 0 0 0 0 0 0 0 0 0 0 0 0 0 0 0 0 0 0 0 0 0 0 0 0 0 0 0 0 0 0 0 0 0 0 0
0 0 0 0 0 0 0 0 0 0 0 0 0 0 0 0 0 0 0 0 0 0 0 0 0 0 0 0 0 0 0 0 0 0 0 0 0 0 0 0 0 0 0
0 0 0 0 0 0 0 0 0 0 0 0 0 0 0 0 0 0 0 0 0 0 0 0 0 0 0 0 0 0 0 0 0 0 0 0 0 0 0 0 0 0 0
0 0 0 0 0 0 0 0 0 0 0 0 0 0 0 0 0 0 0 0 0 0 0 0 0 0 0 0 0 0 0 0 0 0 0 0 0 0 0 0 0 0 0
0 0 0 0 0 0 0 0 0 0 0 0 0 0 0 0 0 0 0 0 0 0 0 0 0 0 0 0 0 0 0 0 0 0 0 0 0 0 0 0 0 0 0
0 0 0 0 0 0 0 0 0 0 0 0 0 0 0 0 0 0 0 0 0 0 0 0 0 0 0 0 0 0 0 0 0 0 0 0 0 0 0 0 0 0 0
0 0 0 0 0 0 0 0 0 0 0 0 0 0 0 0 0 0 0 0 0 0 0 0 0 0 0 0 0 0 0 0 0 0 0 0 0 0 0 0 0 0 0
0 0 0 0 0 0 0 0 0 0 0 0 0 0 0 0 0 0 0 0 0 0 0 0 0 0 0 0 0 0 0 0 0 0 0 0 0 0 0 0 0 0 0
0 0 0 0 0 0 0 0 0 0 0 0 0 0 0 0 0 0 0 0 0 0 0 0 0 0 0 0 0 0 0 0 0 0 0 0 0 0 0 0 0 0 0
0 0 0 0 0 0 0 0 0 0 0 0 0 0 0 0 0 0 0 0 0 0 0 0 0 0 0 0 0 0 0 0 0 0 0 0 0 0 0 0 0 0 0
0 0 0 0 0 0 0 0 0 0 0 0 0 0 0 0 0 0 0 0 0 0 0 0 0 0 0 0 0 0 0 0 0 0 0 0 0 0 0 0 0 0 0
0 0 0 0 0 0 0 0 0 0 0 0 0 0 0 0 0 0 0 0 0 0 0 0 0 0 0 0 0 0 0 0 0 0 0 0 0 0 0 0 0 0 0
0 0 0 0 0 0 0 0 0 0 0 0 0 0 0 0 0 0 0 0 0 0 0 0 0 0 0 0 0 0 0 0 0 0 0 0 0 0 0 0 0 0 0
Wind_Speed
10 10 10 10 9 10 9 9 8 8 6 4 3 3 3 4 4 5 7 8 7 8 7 6 5 5 5 5 5 3 3 2 2 3 1 1 1 2 3 3 3 4 4
13 13 12 11 11 10 10 9 8 8 7 5 4 3 4 3 3 3 5 7 7 8 8 7 5 5 4 5 5 4 3 2 3 3 2 1 2 2 2 2 3 4 3
14 14 13 12 12 11 10 9 9 8 7 7 4 4 3 2 2 2 3 4 6 6 6 7 6 5 5 5 5 5 5 3 2 2 4 4 4 2 2 2 2 3 3
12 12 12 13 12 11 10 9 9 8 7 7 5 5 3 3 3 2 2 2 4 5 5 5 6 6 5 5 5 5 3 4 3 2 1 2 3 3 1 2 1 2 4
12 12 11 11 10 10 9 9 8 8 8 7 6 5 4 3 3 2 2 2 2 3 4 5 5 5 5 6 6 5 5 4 4 4 3 2 1 1 2 2 2 1 2
12 12 11 10 9 10 9 8 8 8 8 7 7 6 6 5 3 2 1 1 1 2 3 4 4 4 5 6 7 6 7 5 5 4 3 3 3 3 3 3 2 2 2
11 11 12 12 11 12 11 10 9 9 9 8 7 7 6 5 4 2 1 1 1 1 2 3 3 3 4 4 5 5 5 5 5 5 4 3 3 3 3 3 2 2 2
10 11 11 11 11 11 11 11 10 9 9 8 7 7 6 4 3 3 1 1 0 1 1 2 2 3 3 4 4 4 4 4 5 5 4 3 3 3 4 4 3 2 1
11 11 11 11 11 11 11 10 10 9 9 9 8 7 7 6 5 4 3 2 1 1 1 2 2 2 2 3 4 3 3 3 4 4 4 3 3 4 4 3 4 4 3
10 10 10 10 10 9 9 10 9 9 8 9 8 7 8 8 7 6 6 4 3 2 2 2 2 2 2 2 2 2 2 3 2 2 3 3 2 3 3 3 3 3 3
9 8 8 8 9 9 9 9 9 9 9 9 8 8 8 8 8 7 7 6 5 4 4 3 3 2 2 2 2 2 2 3 2 2 3 3 3 3 3 3 3 3 3
7 7 7 7 8 9 9 9 9 9 9 8 8 8 8 9 9 8 8 7 6 6 5 4 3 3 2 2 2 2 2 3 3 3 3 3 3 3 2 2 3 2 3
7 7 7 7 7 7 8 8 8 9 8 8 8 9 9 9 9 8 8 7 7 7 6 5 5 4 3 3 2 2 2 2 2 2 3 3 3 3 2 2 2 2 2
6 6 6 7 7 7 7 7 8 8 8 8 8 9 9 8 8 7 8 8 7 7 7 6 5 5 4 4 4 3 2 2 2 2 2 2 3 3 3 3 3 3 3
7 6 6 6 6 7 7 7 7 7 7 7 8 8 8 7 8 8 8 8 8 8 7 7 6 5 4 4 4 3 3 3 3 3 2 2 3 4 4 3 3 4 3
6 6 6 6 6 6 6 6 7 7 6 7 7 7 8 8 8 8 7 8 8 8 8 8 7 7 6 8 7 4 3 3 3 3 3 3 3 4 5 5 6 5 4
5 5 5 5 5 5 4 5 5 5 6 7 7 7 7 8 8 8 8 8 7 8 8 8 8 7 8 10 8 7 4 4 4 3 3 3 4 4 4 5 6 5 5
5 5 4 4 4 3 3 3 4 5 6 6 7 7 7 7 7 7 8 7 6 6 6 7 8 7 9 12 9 8 5 5 5 4 4 4 3 3 4 4 5 5 5
3 3 3 3 3 3 3 3 4 4 5 5 6 6 6 6 7 7 7 6 6 6 6 6 8 8 9 12 10 8 4 5 5 5 5 4 3 4 5 5 5 5 4
2 3 3 2 3 3 2 2 3 4 4 4 4 5 5 6 6 6 5 5 5 5 6 7 7 8 8 12 11 8 4 4 4 4 5 7 6 6 6 4 4 5 3
3 3 2 2 3 3 1 2 2 2 2 3 4 5 5 5 5 5 5 5 5 6 7 7 7 8 10 12 13 11 4 4 4 4 4 5 8 8 7 5 3 4 4
3 3 3 4 3 2 1 1 2 1 1 3 4 5 6 5 5 5 6 6 6 7 7 7 7 6 8 10 11 13 10 7 5 4 4 5 11 11 10 7 8 10 7
3 2 3 4 4 2 1 1 1 1 2 3 3 4 5 5 5 5 6 5 6 5 5 6 6 6 6 8 13 13 12 11 6 5 9 10 12 11 9 12 11 8 5
2 2 3 4 4 4 2 1 0 2 3 2 2 2 3 4 4 4 4 4 5 5 5 5 5 5 6 6 6 5 5 7 6 5 8 11 13 10 9 9 7 5 4
2 2 2 3 4 4 2 1 1 3 3 2 1 1 2 2 2 3 3 3 2 2 3 3 3 4 5 6 8 5 4 3 4 4 5 5 5 6 6 5 5 5 5
1 2 2 3 3 3 2 1 1 3 3 2 1 1 1 1 1 1 2 3 2 5 6 5 3 3 4 7 10 11 10 9 8 6 5 5 5 5 5 4 4 4 4
Wind_Direction
349 350 350 350 349 347 347 343 341 338 338 332 320 294 265 250 233 219 210 200 193 193 195 204 201 193 194 195 182 164 164 161 137 112 75 334 280 231 231 221 217 221 217
351 351 350 351 350 346 344 339 337 333 331 321 303 280 274 266 251 235 218 206 198 193 195 194 191 188 189 186 179 162 155 160 156 140 132 254 311 273 228 220 223 228 211
347 344 346 345 345 345 342 336 330 330 329 326 314 305 292 284 270 244 227 213 200 197 194 187 182 181 184 188 186 176 164 168 178 167 153 165 215 259 290 242 230 225 216
344 341 341 342 341 339 337 334 329 330 333 333 329 318 304 290 280 272 251 222 197 190 187 183 179 179 179 180 187 180 173 162 174 186 184 172 160 164 245 298 264 234 224
342 340 338 336 335 337 339 338 334 337 339 341 339 328 313 295 294 277 249 232 204 184 175 181 178 181 182 181 182 178 180 180 177 174 163 156 131 143 164 236 281 293 252
341 340 339 340 340 342 342 345 345 344 345 347 349 345 336 330 332 316 266 225 191 171 170 177 182 187 189 188 189 186 187 189 183 179 173 167 166 182 178 197 222 250 276
340 341 345 346 346 349 350 350 349 349 350 351 354 351 346 344 346 335 296 228 181 184 184 175 180 182 188 188 182 183 190 186 183 185 191 190 188 169 168 172 190 221 278
341 342 346 349 349 352 354 354 354 353 353 357 357 359 359 355 350 351 353 14 111 174 175 163 162 170 174 173 170 173 183 180 187 195 193 195 199 185 179 170 162 179 258
342 346 347 350 351 353 355 356 357 0 0 2 2 8 8 8 8 9 20 31 33 59 108 141 146 154 160 161 158 166 174 175 187 195 199 201 206 199 194 177 166 164 191
343 345 347 347 349 350 350 358 2 5 3 6 10 13 10 11 16 23 28 33 36 42 76 98 114 125 124 142 145 152 163 173 186 191 194 196 195 190 180 176 172 173 175
334 337 341 345 349 353 358 2 4 7 8 7 8 12 12 13 20 25 25 26 30 36 41 59 86 97 100 105 129 155 168 175 185 189 191 192 178 174 172 162 162 170 166
333 335 339 344 350 355 358 1 3 6 6 7 11 14 15 17 20 20 19 23 27 29 36 42 55 68 73 80 98 119 126 143 164 174 170 178 163 157 153 155 165 167 166
340 344 347 348 350 353 356 358 1 2 2 8 13 17 18 19 18 17 18 24 30 33 34 40 45 49 55 64 67 82 94 117 141 149 151 149 141 138 136 144 150 148 146
340 350 349 346 349 352 354 356 359 0 5 11 17 18 15 15 15 17 21 24 28 31 29 33 37 35 40 45 45 53 72 77 78 90 120 133 147 156 154 151 148 135 126
342 348 346 344 348 354 355 357 358 0 4 13 17 12 9 14 19 21 22 24 30 32 30 33 31 25 30 32 35 39 60 70 74 68 74 101 140 158 155 145 142 135 126
332 337 343 346 346 347 350 354 357 358 6 17 15 9 12 18 19 18 21 27 28 26 30 29 26 26 26 29 42 50 57 66 71 69 63 73 83 105 107 126 140 143 140
324 332 333 329 326 330 341 350 349 357 12 17 13 12 14 19 17 20 26 26 23 26 29 26 23 22 16 27 39 48 60 64 57 58 64 71 73 75 83 88 90 92 106
322 324 323 323 322 327 339 349 1 10 13 14 12 10 12 17 17 23 24 20 20 25 26 24 20 21 19 24 37 53 59 64 59 55 60 68 61 69 96 99 87 74 62
300 295 295 296 310 324 334 3 12 11 16 13 10 7 11 17 21 21 16 13 20 26 24 22 23 23 14 22 36 53 57 62 53 47 47 55 61 70 97 103 100 84 66
314 308 312 318 327 327 344 18 12 14 11 5 7 10 18 25 23 17 15 13 22 24 24 28 26 25 19 23 36 49 56 59 51 42 37 41 55 73 92 98 107 102 84
333 336 339 334 317 322 9 11 2 1 356 22 29 25 22 28 26 23 21 20 24 28 27 26 24 24 21 22 35 46 52 58 58 49 35 33 54 69 75 82 89 107 111
344 348 345 333 327 341 34 1 336 321 76 62 47 35 27 28 29 30 27 25 26 31 25 23 21 18 16 21 33 45 53 61 67 57 41 47 61 64 64 67 82 95 94
336 339 337 332 337 349 12 327 299 143 114 81 57 42 39 34 31 35 31 28 26 30 25 25 22 12 12 18 30 40 50 57 64 62 64 64 62 60 57 60 68 72 73
327 338 348 347 337 338 346 299 245 143 129 112 77 53 49 40 35 36 35 36 28 26 25 23 17 11 14 13 11 20 37 47 57 55 58 61 58 56 52 50 48 48 59
305 327 331 322 316 327 340 2 116 135 135 136 119 84 66 56 42 38 32 31 21 22 28 16 9 12 10 3 20 36 37 44 56 60 51 46 42 45 41 42 42 41 46
287 317 324 320 318 328 336 352 126 149 151 155 164 163 146 97 54 25 10 17 24 29 38 37 37 18 27 33 44 47 52 57 67 69 60 54 51 50 43 43 41 38 37